This is the latest recevied weather packets stored in our database for station/object K42C. If no packets are shown the sender has not sent any weather packets the latest 10 day(s).
| Time | Temp. | Humidity | Pressure | Rain* | Wind** | Luminosity | Snow |
|---|---|---|---|---|---|---|---|
| 1777410089 | 14.44° C | 71% | 974.9 hPa | 0 mm | 0 m/s | - | - |
| 1777409691 | 13.89° C | 72% | 974.9 hPa | 0 mm | 0 m/s | - | - |
| 1777409291 | 13.89° C | 72% | 975 hPa | 0 mm | 0 m/s | - | - |
| 1777408894 | 13.89° C | 71% | 975 hPa | 0 mm | 0 m/s | - | - |
| 1777408493 | 13.89° C | 73% | 975.1 hPa | 0 mm | 0 m/s | - | - |
| 1777408096 | 13.89° C | 72% | 975 hPa | 0 mm | 0 m/s | - | - |
| 1777407695 | 13.89° C | 74% | 975.1 hPa | 0 mm | 0 m/s | - | - |
| 1777407298 | 13.89° C | 73% | 975.2 hPa | 0 mm | 0 m/s | - | - |
| 1777406898 | 13.33° C | 74% | 975.1 hPa | 0 mm | 0 m/s | - | - |
| 1777406500 | 13.33° C | 76% | 975.2 hPa | 0 mm | 0 m/s | - | - |
| 1777406100 | 13.33° C | 76% | 975.3 hPa | 0 mm | 0 m/s | - | - |
| 1777405703 | 13.33° C | 76% | 975.2 hPa | 0 mm | 0 m/s | - | - |
| 1777405302 | 13.33° C | 75% | 975.2 hPa | 0 mm | 0 m/s | - | - |
| 1777404905 | 13.33° C | 75% | 975.4 hPa | 0 mm | 0 m/s | - | - |
| 1777404504 | 13.33° C | 77% | 975.4 hPa | 0 mm | 0 m/s | - | - |
| 1777404107 | 13.33° C | 76% | 975.3 hPa | 0 mm | 0 m/s | - | - |
| 1777403707 | 13.33° C | 76% | 975.1 hPa | 0 mm | 0 m/s | - | - |
| 1777403310 | 12.78° C | 76% | 975.2 hPa | 0 mm | 0 m/s | - | - |
| 1777402909 | 12.78° C | 78% | 974.9 hPa | 0 mm | 0 m/s | - | - |
| 1777402512 | 12.22° C | 80% | 975 hPa | 0 mm | 0 m/s | - | - |
| 1777402111 | 12.22° C | 78% | 974.8 hPa | 0 mm | 0 m/s | - | - |
| 1777401714 | 12.22° C | 81% | 974.8 hPa | 0 mm | 0 m/s | - | - |
| 1777401314 | 11.67° C | 82% | 974.9 hPa | 0 mm | 0 m/s | - | - |
| 1777400917 | 12.22° C | 81% | 974.9 hPa | 0 mm | 0 m/s | - | - |
| 1777400516 | 12.22° C | 81% | 974.9 hPa | 0 mm | 0 m/s | - | - |
* Rain latest hour (hover to see other rain measurements)
** Current wind speed in m/s (hover to see current wind gust speed)